Weather in Bandundu

Democratic Republic of the Congo     4°33′38″S   18°26′12″E
temp.,
°C
wind,
m/s
gust,
m/s
humid.,
%
clouds,
%
prec.,
mm/h
press.,
hPa
HPBL,
m
13 april, tue
tue1301:00+21sse1198100 0.8 101234
04:00+21se1396100 0.0 1011100
07:00+21se269599 0.0 1014231
10:00+28sse236289 0.0 1014888
13:00+32sw124959 0.0 10111774
16:00+29sw126793 0.1 1009219
19:00+26sse117169 0.2 101015
22:00+22sse1186100 0.0 101311
14 april, wed
wed1401:00+21ene1187100 0.0 101313
04:00+20ne1190100 0.0 101212
07:00+22nne1289100 0.0 1014146
10:00+28ne1267100 0.0 10151035
13:00+31ne225588 0.1 10101623
16:00+26ene238598 3.8 1010300
19:00+23e1193100 4.6 101111
22:00+22se1196100 0.0 101213
15 april, thu
thu1501:00+22se1196100 0.0 101117
04:00+21sse139899 0.0 101175
07:00+22se259334 0.0 1013199
10:00+28se2366100 0.0 1013955
13:00+27se226699 0.0 1010831
16:00+28sse116263 0.0 1008713
19:00
22:00+22s1186100 0.0 101116
16 april, fri
fri1601:00+21sw1195100 0.0 101111
04:00+20sw129389 0.0 101137
07:00+22s1287100 0.0 1012116
10:00+29sse246114 0.0 1013892
13:00+32ssw225021 0.0 10091838
16:00+30sw116051 0.0 1007986
19:00+24ese118032 0.1 101019
22:00+23se278693 0.0 1010184
17 april, sat
sat1701:00+21se1593100 0.0 1010152
04:00+21se11969 0.0 101126
07:00+23se24865 0.0 1012201
10:00+29se245937 0.0 1011897
13:00+33ese1346100 0.0 10081616
16:00+31nne2361100 0.0 1007337
19:00+26sw117481 0.0 100911
22:00+23ese1187100 0.5 101111